{"data":{"norad_id":63315,"intl_designator":"2025-057J","name":"STARLINK-11652 [DTC]","alt_names":[],"object_type":"PAYLOAD","status":"ACTIVE","operator":null,"country":"US","launch_date":"2025-03-18","launch_site_code":"AFETR","launch_vehicle":null,"mission":null,"orbit_class":"UNKNOWN","rcs_meters":null,"size_class":null,"mass_kg":null,"dimensions":null,"purposes":["comms"],"wikipedia_slug":null,"has_3d_model":false,"image_url":null,"decayed_at":null,"tle_current":{"epoch":"2026-05-24T18:30:55.450368Z","epoch_age_seconds":98360,"freshness":"FRESH","line1":"1 63315U 25057J   26144.77147512  .00143725  00000+0  11027-2 0  9992","line2":"2 63315  43.0009 165.9010 0001625  68.4268 291.6773 15.70875378 69175","mean_motion":15.70875378,"eccentricity":0.0001625,"inclination_deg":43.0009,"raan_deg":165.901,"arg_perigee_deg":68.4268,"mean_anomaly_deg":291.6773,"bstar":0.0011027,"rev_number":6917,"period_min":91.668633945576,"perigee_km":355.29958524238,"apogee_km":357.4883078,"semimajor_km":6734.5309465212,"source":"CELESTRAK","updated_at":"2026-05-25T13:38:19.957524Z"}}}